Regional Weather Roundup
Issued by NWS

Home | Current Version | Previous Version | Text Only | Print | Product List | Glossary On
Versions: 1 2 3 4 5 6 7 8 9 10 11 12 13 14 15 16 17 18 19 20 21 22 23 24 25 26 27 28 29 30 31 32 33 34 35 36 37 38 39 40 41 42 43 44 45 46 47 48 49 50
000
ASUS43 KLSX 111007
RWRMO

WEATHER SUMMARY FOR MISSOURI
NATIONAL WEATHER SERVICE SPRINGFIELD MO
500 AM CDT FRI JUL 11 2014

NOTE: "FAIR" INDICATES FEW OR NO CLOUDS BELOW 12,000 FEET WITH NO
       SIGNIFICANT WEATHER AND/OR OBSTRUCTIONS TO VISIBILITY.
       CURRENT SKY AND/OR WEATHER CONDITIONS ARE NOT AVAILABLE FOR
       CHILLICOTHE AND FARMINGTON.

MOZ001>031-035>038-043-044-053-054-111100-
...NORTHERN AND WESTERN MISSOURI...

CITY           SKY/WX    TMP DP  RH WIND       PRES   REMARKS
KANSAS CTY INT MOCLDY    69  65  86 SE8       30.05R
KANSAS C DTWN  MOCLDY    71  66  84 S3        30.05R
LEE`S SUMMIT   CLOUDY    68  65  90 S8        30.07R
ST JOSEPH      MOCLDY    69  65  86 SE7       30.04R
CHILLICOTHE      N/A     68  62  81 S7        30.08S
KIRKSVILLE     CLEAR     63  57  81 SE9       30.12R

$$
MOZ066>068-077>081-088>096-101>105-111100-
...SOUTHWEST MISSOURI...

CITY           SKY/WX    TMP DP  RH WIND       PRES   REMARKS
SPRINGFIELD    PTCLDY    68  65  90 SE10      30.10S
JOPLIN         PTCLDY    70  64  81 SE10      30.06S

$$
MOZ032>034-039>042-045>050-055>058-069>072-111100-
...CENTRAL MISSOURI...

CITY           SKY/WX    TMP DP  RH WIND       PRES   REMARKS
COLUMBIA       PTCLDY    65  61  87 SE5       30.12R
JEFFERSON CITY CLEAR     65  62  90 SE5       30.11R
ROLLA          CLEAR     65  61  87 SE8       30.12S
SEDALIA        CLEAR     66  64  93 SE6       30.10R
WHITEMAN AFB   CLEAR     64  60  85 SE5       30.08R
OSAGE BEACH    CLEAR     66  63  88 SE5       30.10S

$$
MOZ051-052-059>065-111100-
...EAST CENTRAL MISSOURI...

CITY           SKY/WX    TMP DP  RH WIND       PRES   REMARKS
ST LOUIS INTL  PTCLDY    67  58  72 SE7       30.14S
SPIRIT OF STL  CLEAR     60  58  92 CALM      30.13R
ST CHARLES     CLEAR     62  58  86 E5        30.13S

$$
MOZ072>076-082>087-097>100-106>115-111100-
...SOUTH CENTRAL AND SOUTHEAST MISSOURI...

CITY           SKY/WX    TMP DP  RH WIND       PRES   REMARKS
CAPE GIRARDEAU CLEAR     65  63  93 CALM      30.12S FOG
FARMINGTON     CLEAR     61  59  94 CALM      30.17R
POPLAR BLUFF   CLEAR     67  63  87 CALM      30.10S
WEST PLAINS    CLEAR     67  64  90 CALM      30.14S

$$


USA.gov is the U.S. government's official web portal to all federal, state and local government web resources and services.